IK1EJA-5 Weather Reports


time (UTC)temp
C
wind
direction
speed
KPH
gust
KPH
rain 1hr
cm
rain 24hr
cm
rain mn
cm
humidity
%
barometer
mb
20260507120602 -17 143 4.8 6.4 0.00 0.00 0.10 81 1014.1
20260507115603 -17 183 11.3 16.1 0.00 0.00 0.10 81 1014.1
20260507115102 -17 173 6.4 6.4 0.00 0.00 0.10 82 1014.0
20260507114603 -17 176 6.4 9.7 0.00 0.00 0.10 83 1014.2
20260507114102 -17 202 17.7 20.9 0.00 0.00 0.10 80 1014.2
20260507113603 -17 123 9.7 14.5 0.00 0.00 0.10 80 1014.2
20260507113103 -17 153 16.1 17.7 0.00 0.00 0.10 78 1014.6
20260507112603 -17 148 8.0 12.9 0.00 0.00 0.10 78 1014.2
20260507112102 -17 210 9.7 12.9 0.00 0.00 0.10 82 1014.3
20260507111602 -17 224 12.9 17.7 0.00 0.00 0.10 82 1014.2
20260507111102 -17 180 9.7 12.9 0.00 0.00 0.10 77 1014.1
20260507110602 -17 178 9.7 12.9 0.00 0.00 0.10 79 1014.2
20260507105602 -17 182 6.4 8.0 0.00 0.00 0.10 78 1014.3
20260507105102 -17 179 11.3 14.5 0.00 0.00 0.10 79 1014.3
20260507104603 -17 103 9.7 17.7 0.00 0.00 0.10 83 1014.2
20260507104103 -17 163 11.3 12.9 0.00 0.00 0.10 85 1014.3
20260507103603 -17 187 9.7 14.5 0.00 0.00 0.10 81 1014.3
20260507103103 -17 101 8.0 16.1 0.00 0.00 0.10 82 1014.3
20260507102603 -17 159 11.3 14.5 0.00 0.00 0.10 83 1014.5
20260507102102 -17 76 6.4 8.0 0.00 0.00 0.10 81 1014.6
20260507101602 -17 140 6.4 14.5 0.00 0.00 0.10 80 1014.3
20260507101103 -17 125 11.3 17.7 0.00 0.00 0.10 80 1014.3
20260507100603 -17 161 8.0 9.7 0.00 0.00 0.10 80 1014.2
20260507095602 -17 174 11.3 12.9 0.00 0.00 0.10 78 1014.5
20260507095103 -17 103 3.2 4.8 0.00 0.00 0.10 78 1014.2
20260507094603 -17 132 9.7 14.5 0.00 0.00 0.10 80 1014.2
20260507094103 -17 171 11.3 12.9 0.00 0.00 0.10 80 1014.3
20260507093603 -17 182 11.3 14.5 0.00 0.00 0.10 78 1014.2
20260507093103 -17 190 12.9 14.5 0.00 0.00 0.10 81 1014.3
20260507092603 -17 190 8.0 9.7 0.00 0.00 0.10 80 1014.2
20260507092102 -17 198 12.9 16.1 0.00 0.00 0.10 81 1014.6
20260507091602 -17 177 12.9 17.7 0.00 0.00 0.10 82 1014.3
20260507091103 -17 121 11.3 14.5 0.00 0.00 0.10 80 1014.3
20260507090602 -17 175 9.7 12.9 0.00 0.00 0.10 84 1014.2
20260507085603 -17 177 12.9 14.5 0.00 0.00 0.10 84 1014.2
20260507085103 -17 169 6.4 8.0 0.00 0.00 0.10 83 1014.2
20260507084603 -17 194 12.9 17.7 0.00 0.00 0.10 84 1014.2
20260507084102 -17 163 8.0 9.7 0.00 0.00 0.10 87 1014.2
20260507083603 -17 196 6.4 6.4 0.00 0.00 0.10 87 1014.0
20260507083102 -17 83 4.8 8.0 0.00 0.00 0.10 88 1014.0
20260507082603 -17 86 3.2 3.2 0.00 0.00 0.10 87 1013.7
20260507082103 -17 64 1.6 1.6 0.00 0.00 0.10 90 1013.7
20260507081602 -17 221 1.6 1.6 0.00 0.00 0.10 89 1014.0
20260507081102 -17 342 0.0 1.6 0.00 0.00 0.10 93 1013.7
20260507080603 -17 7 4.8 6.4 0.00 0.00 0.10 94 1014.0
20260507080103 -17 26 6.4 8.0 0.00 0.00 0.10 96 1013.7
20260507075603 -17 53 0.0 0.0 0.08 0.00 0.10 99 1013.7
20260507075102 -17 78 0.0 0.0 0.08 0.00 0.10 99 1013.7
20260507074602 -17 104 3.2 4.8 0.08 0.00 0.10 99 1013.8
20260507074103 -17 99 0.0 1.6 0.08 0.00 0.10 99 1013.6
20260507073602 -17 87 0.0 1.6 0.08 0.00 0.10 97 1013.7
20260507073102 -17 155 3.2 4.8 0.05 0.00 0.08 95 1013.7
20260507072602 -17 210 4.8 4.8 0.03 0.00 0.05 91 1013.6
20260507072103 -17 213 1.6 1.6 0.00 0.00 0.03 87 1013.6
20260507071603 -17 302 1.6 1.6 0.00 0.00 0.03 85 1013.6
20260507071103 -17 12 0.0 1.6 0.00 0.00 0.03 84 1013.7
20260507070604 -17 46 0.0 0.0 0.00 0.00 0.03 92 1013.7
20260507065602 -17 74 0.0 1.6 0.00 0.00 0.03 96 1013.7
20260507065103 -17 171 3.2 3.2 0.00 0.00 0.03 97 1013.7
20260507064602 -17 165 4.8 6.4 0.00 0.00 0.03 96 1013.5
20260507064103 -17 172 1.6 3.2 0.00 0.00 0.03 96 1013.5
20260507063603 -17 45 0.0 0.0 0.00 0.00 0.03 93 1013.3
20260507063103 -17 113 1.6 1.6 0.00 0.00 0.03 92 1013.2
20260507062602 -17 101 1.6 1.6 0.00 0.00 0.03 89 1013.2
20260507062102 -17 44 0.0 1.6 0.00 0.00 0.03 92 1013.2
20260507061602 -17 36 0.0 0.0 0.00 0.00 0.03 95 1013.3
20260507061102 -17 80 0.0 1.6 0.00 0.00 0.03 96 1013.2
20260507060603 -17 73 0.0 1.6 0.00 0.00 0.03 98 1013.3
20260507055603 -17 20 0.0 1.6 0.03 0.00 0.03 99 1013.2
20260507055103 -17 195 0.0 0.0 0.03 0.00 0.03 99 1013.5
20260507054603 -17 85 0.0 1.6 0.03 0.00 0.03 99 1013.3
20260507054102 -17 43 0.0 0.0 0.03 0.00 0.03 99 1013.2
20260507053602 -17 99 0.0 0.0 0.03 0.00 0.03 99 1013.1
20260507053103 -17 58 0.0 1.6 0.03 0.00 0.03 99 1013.2
20260507052602 -17 48 0.0 0.0 0.03 0.00 0.03 99 1013.0
20260507052103 -17 47 0.0 0.0 0.03 0.00 0.03 99 1013.0
20260507051603 -17 58 0.0 0.0 0.03 0.00 0.03 99 1012.8
20260507051102 -17 173 1.6 1.6 0.03 0.00 0.03 99 1012.8
20260507050602 -17 84 0.0 1.6 0.03 0.00 0.03 99 1012.8
20260507045603 -17 180 1.6 3.2 0.00 0.00 0.00 99 1012.7
20260507045102 -17 88 0.0 0.0 0.00 0.00 0.00 99 1012.7
20260507044602 -17 123 0.0 1.6 0.00 0.00 0.00 99 1012.7
20260507044102 -17 130 0.0 0.0 0.00 0.00 0.00 99 1012.7
20260507043602 -17 178 3.2 4.8 0.00 0.00 0.00 99 1012.7
20260507043103 -17 47 0.0 0.0 0.00 0.00 0.00 99 1012.7
20260507042603 -17 160 1.6 1.6 0.00 0.00 0.00 99 1012.7
20260507042102 -17 193 3.2 3.2 0.00 0.00 0.00 99 1012.2
20260507041603 -17 89 0.0 1.6 0.00 0.00 0.00 99 1012.6
20260507041103 -17 204 1.6 3.2 0.00 0.00 0.00 99 1012.3
20260507040603 -17 61 0.0 0.0 0.00 0.00 0.00 99 1012.7
20260507035603 -17 79 0.0 0.0 0.00 0.00 0.00 99 1012.7
20260507035102 -17 79 0.0 0.0 0.00 0.00 0.00 99 1012.6
20260507034602 -17 183 1.6 3.2 0.00 0.00 0.00 99 1012.7
20260507034102 -17 185 1.6 1.6 0.00 0.00 0.00 99 1012.6
20260507033603 -17 79 0.0 0.0 0.00 0.00 0.00 99 1012.5
20260507032603 -17 78 0.0 0.0 0.00 0.00 0.00 99 1012.5
20260507032103 -17 78 0.0 0.0 0.00 0.00 0.00 99 1012.5
20260507031602 -17 78 0.0 0.0 0.00 0.00 0.00 99 1012.3
20260507031103 -17 78 0.0 0.0 0.00 0.00 0.00 99 1012.6
20260507030603 -17 177 1.6 3.2 0.00 0.00 0.00 99 1012.2
20260507025603 -17 185 1.6 1.6 0.00 0.00 0.00 99 1012.3
20260507025103 -17 62 0.0 0.0 0.00 0.00 0.00 99 1012.3
20260507024602 -17 183 1.6 3.2 0.00 0.00 0.00 99 1012.2
20260507024102 -17 60 0.0 0.0 0.00 0.00 0.00 99 1012.5
20260507023602 -17 61 0.0 0.0 0.00 0.00 0.00 99 1012.3
20260507023103 -17 60 0.0 0.0 0.00 0.00 0.00 99 1012.6
20260507022602 -17 83 0.0 0.0 0.00 0.00 0.00 99 1012.2
20260507022102 -17 85 0.0 0.0 0.00 0.00 0.00 99 1012.5
20260507021603 -17 86 0.0 1.6 0.00 0.00 0.00 99 1012.5
20260507021103 -17 110 0.0 1.6 0.00 0.00 0.00 99 1012.3
20260507020603 -17 75 0.0 0.0 0.00 0.00 0.00 99 1012.5
20260507015602 -17 84 0.0 0.0 0.00 0.00 0.00 99 1012.3
20260507015103 -17 78 0.0 0.0 0.00 0.00 0.00 99 1012.6
20260507014604 -17 78 0.0 0.0 0.00 0.00 0.00 99 1012.5
20260507014103 -17 236 0.0 1.6 0.00 0.00 0.00 99 1012.5
20260507013602 -17 182 1.6 3.2 0.00 0.00 0.00 99 1012.2
20260507012602 -17 101 0.0 0.0 0.00 0.00 0.00 99 1012.5
20260507012103 -17 61 0.0 0.0 0.00 0.00 0.00 99 1012.6
20260507011603 -17 9 0.0 0.0 0.00 0.00 0.00 99 1012.5
20260507011103 -17 66 0.0 0.0 0.00 0.00 0.00 99 1012.3
20260507010603 -17 63 0.0 0.0 0.00 0.00 0.00 99 1012.6
20260507010104 -17 73 0.0 0.0 0.00 0.00 0.00 99 1012.3
20260507005602 -17 115 0.0 1.6 0.00 0.00 0.00 99 1012.6
20260507005102 -17 179 0.0 1.6 0.00 0.00 0.00 99 1012.3
20260507004603 -17 72 0.0 0.0 0.00 0.00 0.00 99 1012.5
20260507004103 -17 160 1.6 1.6 0.00 0.00 0.00 99 1012.6
20260507003602 -17 173 1.6 3.2 0.00 0.00 0.00 99 1012.7
20260507003102 -17 67 0.0 0.0 0.00 0.00 0.00 99 1012.7
20260507002602 -17 123 1.6 1.6 0.00 0.00 0.00 99 1012.6
20260507002103 -17 203 0.0 1.6 0.00 0.00 0.00 99 1012.3
20260507001602 -17 238 0.0 1.6 0.00 0.00 0.00 99 1012.7
20260507001102 -17 171 0.0 1.6 0.00 0.00 0.00 99 1012.5
20260507000602 -17 76 0.0 1.6 0.00 0.00 0.00 99 1012.6
20260506235602 -17 94 0.0 1.6 0.00 0.00 0.00 99 1012.7
20260506235102 -17 81 0.0 0.0 0.00 0.00 0.00 99 1012.7
20260506234603 -17 234 0.0 1.6 0.00 0.00 0.00 99 1012.7
20260506234102 -17 102 0.0 0.0 0.00 0.00 0.00 99 1012.8
20260506233602 -17 84 0.0 0.0 0.00 0.00 0.00 99 1012.6
20260506233103 -17 130 0.0 1.6 0.00 0.00 0.00 99 1012.8
20260506232603 -17 103 0.0 1.6 0.00 0.00 0.00 99 1012.7
20260506232102 -17 37 0.0 0.0 0.00 0.00 0.00 99 1012.7
20260506231603 -17 27 0.0 0.0 0.00 0.00 0.00 99 1012.7
20260506231103 -17 15 0.0 0.0 0.00 0.00 0.00 99 1012.7
20260506230603 -17 125 1.6 1.6 0.00 0.00 0.00 99 1012.8
20260506225603 -17 187 1.6 3.2 0.00 0.00 3.28 99 1012.7
20260506225103 -17 70 0.0 0.0 0.00 0.00 3.28 99 1012.6
20260506224602 -17 93 1.6 1.6 0.00 0.00 3.28 99 1012.6
20260506224103 -17 173 1.6 1.6 0.00 0.00 3.28 99 1012.7
20260506223604 -17 70 0.0 0.0 0.00 0.00 3.28 99 1012.6
20260506223103 -17 93 0.0 0.0 0.00 0.00 3.28 99 1012.6
20260506222603 -17 69 0.0 0.0 0.00 0.00 3.28 99 1012.3
20260506221603 -17 109 0.0 1.6 0.00 0.00 3.28 99 1012.7
20260506221102 -17 153 1.6 3.2 0.00 0.00 3.28 99 1012.6
20260506220603 -17 153 0.0 1.6 0.00 0.00 3.28 99 1012.6
20260506215602 -17 82 0.0 0.0 0.00 0.00 3.28 99 1012.7
20260506215102 -17 198 1.6 1.6 0.00 0.00 3.28 99 1012.7
20260506214602 -17 78 0.0 0.0 0.00 0.00 3.28 99 1012.5
20260506214103 -17 77 0.0 1.6 0.00 0.00 3.28 99 1012.6
20260506213602 -17 163 1.6 1.6 0.00 0.00 3.28 99 1012.7
20260506213103 -17 222 1.6 1.6 0.00 0.00 3.28 99 1012.7
20260506212603 -17 82 0.0 1.6 0.00 0.00 3.28 99 1012.5
20260506212102 -17 65 0.0 1.6 0.00 0.00 3.28 99 1012.5
20260506211603 -17 222 1.6 1.6 0.00 0.00 3.28 99 1012.5
20260506211102 -17 86 0.0 0.0 0.00 0.00 3.28 99 1012.5
20260506210603 -17 47 0.0 0.0 0.00 0.00 3.28 99 1012.6
20260506205602 -17 53 0.0 0.0 0.00 0.00 3.28 99 1012.5
20260506205102 -17 77 0.0 0.0 0.00 0.00 3.28 99 1012.5
20260506204602 -17 83 0.0 1.6 0.00 0.00 3.28 99 1012.7
20260506204103 -17 206 1.6 1.6 0.00 0.00 3.28 99 1012.6
20260506203602 -17 50 0.0 1.6 0.00 0.00 3.28 99 1012.5
20260506203103 -17 7 0.0 0.0 0.00 0.00 3.28 99 1012.5
20260506202603 -17 335 1.6 1.6 0.00 0.00 3.28 99 1012.5
20260506202103 -17 49 0.0 0.0 0.00 0.00 3.28 99 1012.3
20260506201603 -17 44 0.0 0.0 0.00 0.00 3.28 99 1012.3
20260506201102 -17 61 0.0 0.0 0.00 0.00 3.28 99 1012.5
20260506200603 -17 167 0.0 1.6 0.00 0.00 3.28 99 1012.2
20260506195603 -17 133 1.6 3.2 0.00 0.00 3.28 99 1012.1
20260506195102 -17 164 1.6 1.6 0.00 0.00 3.28 99 1012.0
20260506194603 -17 135 3.2 3.2 0.00 0.00 3.28 98 1012.0
20260506194103 -17 166 3.2 3.2 0.00 0.00 3.28 99 1011.7
20260506193603 -17 81 1.6 3.2 0.00 0.00 3.28 99 1011.8
20260506193103 -17 79 0.0 1.6 0.00 0.00 3.28 99 1011.7
20260506192602 -17 65 0.0 0.0 0.00 0.00 3.28 99 1011.7
20260506192102 -17 187 1.6 1.6 0.00 0.00 3.28 98 1011.5
20260506191602 -17 7 0.0 0.0 0.00 0.00 3.28 98 1011.6
20260506191102 -17 44 1.6 1.6 0.00 0.00 3.28 98 1011.6
20260506190603 -17 118 1.6 1.6 0.00 0.00 3.28 98 1011.2
20260506185602 -17 35 0.0 0.0 0.00 0.00 3.28 96 1011.2
20260506185103 -17 80 0.0 1.6 0.00 0.00 3.28 95 1011.2
20260506184603 -17 56 0.0 1.6 0.00 0.00 3.28 95 1011.2
20260506184103 -17 49 0.0 0.0 0.00 0.00 3.28 94 1011.2
20260506183603 -17 191 1.6 3.2 0.00 0.00 3.28 93 1011.0
20260506183102 -17 100 1.6 1.6 0.00 0.00 3.28 93 1011.0
20260506182602 -17 130 1.6 3.2 0.00 0.00 3.28 93 1010.7
20260506182103 -17 198 3.2 4.8 0.00 0.00 3.28 93 1010.7
20260506181603 -17 157 1.6 1.6 0.00 0.00 3.28 92 1010.8
20260506181102 -17 128 0.0 1.6 0.00 0.00 3.28 90 1010.7
20260506180602 -17 80 0.0 1.6 0.00 0.00 3.28 90 1010.7
20260506175603 -17 119 1.6 3.2 0.00 0.00 3.28 88 1010.7
20260506175103 -17 192 6.4 6.4 0.00 0.00 3.28 88 1010.6
20260506174602 -17 148 4.8 4.8 0.00 0.00 3.28 88 1010.3
20260506174103 -17 128 6.4 8.0 0.00 0.00 3.28 88 1010.3
20260506173603 -17 169 3.2 4.8 0.00 0.00 3.28 88 1010.3
20260506173103 -17 10 1.6 3.2 0.00 0.00 3.28 88 1010.2
20260506172603 -17 173 4.8 6.4 0.00 0.00 3.28 87 1010.1
20260506172102 -17 165 8.0 9.7 0.00 0.00 3.28 88 1010.3
20260506171602 -17 184 4.8 6.4 0.00 0.00 3.28 87 1010.3
20260506171102 -17 172 9.7 14.5 0.00 0.00 3.28 87 1010.2
20260506170602 -17 118 6.4 6.4 0.00 0.00 3.28 87 1010.2
20260506170104 -17 161 3.2 4.8 0.00 0.00 3.28 87 1010.1
20260506165603 -17 214 3.2 4.8 0.00 0.00 3.28 87 1010.2
20260506165102 -17 36 3.2 3.2 0.00 0.00 3.28 85 1010.2
20260506164603 -17 185 4.8 6.4 0.00 0.00 3.28 87 1010.2
20260506164102 -17 169 4.8 6.4 0.00 0.00 3.28 86 1010.1
20260506163602 -17 12 0.0 1.6 0.00 0.00 3.28 87 1010.2
20260506163102 -17 187 8.0 9.7 0.00 0.00 3.28 87 1010.2
20260506162603 -17 145 6.4 8.0 0.00 0.00 3.28 88 1010.2
20260506162103 -17 114 8.0 9.7 0.00 0.00 3.28 86 1010.2
20260506161602 -17 167 8.0 9.7 0.00 0.00 3.28 87 1010.2
20260506161102 -17 174 8.0 9.7 0.00 0.00 3.28 86 1010.2
20260506160603 -17 123 3.2 4.8 0.00 0.00 3.28 86 1010.1
20260506155602 -17 152 6.4 8.0 0.00 0.00 3.28 86 1010.2
20260506155102 -17 180 0.0 1.6 0.00 0.00 3.28 87 1010.2
20260506154603 -17 146 3.2 3.2 0.00 0.00 3.28 88 1010.1
20260506154103 -17 161 4.8 4.8 0.00 0.00 3.28 87 1010.2
20260506153602 -17 172 8.0 9.7 0.00 0.00 3.28 87 1010.0
20260506153104 -17 185 6.4 8.0 0.00 0.00 3.28 88 1009.8
20260506152602 -17 157 3.2 4.8 0.00 0.00 3.28 87 1009.8
20260506152103 -17 190 11.3 14.5 0.00 0.00 3.28 86 1009.8
20260506151602 -17 149 11.3 14.5 0.00 0.00 3.28 85 1009.7
20260506151102 -17 81 0.0 0.0 0.00 0.00 3.28 84 1010.0
20260506150602 -17 173 6.4 6.4 0.00 0.00 3.28 82 1010.0
20260506145602 -17 204 3.2 3.2 0.00 0.00 3.28 82 1010.0
20260506145103 -17 118 4.8 4.8 0.00 0.00 3.28 82 1009.8
20260506144602 -17 161 8.0 9.7 0.00 0.00 3.28 84 1010.0
20260506144104 -17 72 0.0 0.0 0.00 0.00 3.28 82 1009.8
20260506143604 -17 183 8.0 9.7 0.00 0.00 3.28 82 1009.7
20260506143102 -17 137 3.2 6.4 0.00 0.00 3.28 84 1009.7
20260506142603 -17 183 4.8 4.8 0.00 0.00 3.28 84 1010.0
20260506142102 -17 177 6.4 8.0 0.00 0.00 3.28 83 1009.6
20260506141603 -17 188 4.8 6.4 0.00 0.00 3.28 82 1009.7
20260506141103 -17 176 4.8 4.8 0.00 0.00 3.28 83 1009.7
20260506140603 -17 165 8.0 9.7 0.00 0.00 3.28 85 1009.8
20260506135603 -17 146 3.2 3.2 0.00 0.00 3.28 87 1009.8
20260506135103 -17 142 3.2 4.8 0.00 0.00 3.28 86 1009.7
20260506134603 -17 98 1.6 3.2 0.00 0.00 3.28 88 1010.0
20260506134103 -17 149 11.3 14.5 0.00 0.00 3.28 88 1010.2
20260506133602 -17 114 1.6 3.2 0.00 0.00 3.28 88 1010.2
20260506133103 -17 107 8.0 9.7 0.00 0.00 3.28 89 1010.1
20260506132603 -17 112 8.0 9.7 0.00 0.00 3.28 88 1010.1
20260506132103 -17 165 6.4 8.0 0.00 0.00 3.28 89 1010.1
20260506131603 -17 135 4.8 6.4 0.00 0.00 3.28 89 1010.1
20260506131103 -17 182 3.2 3.2 0.00 0.00 3.28 90 1010.2
20260506130603 -17 144 8.0 9.7 0.00 0.00 3.28 90 1009.8
20260506130103 -17 147 6.4 8.0 0.00 0.00 3.28 90 1010.2
20260506125603 -17 108 9.7 14.5 0.00 0.00 3.28 89 1010.0
20260506125102 -17 181 6.4 8.0 0.00 0.00 3.28 88 1010.0
20260506124603 -17 187 6.4 8.0 0.00 0.00 3.28 88 1010.1
20260506124102 -17 172 9.7 12.9 0.00 0.00 3.28 86 1009.7
20260506123603 -17 136 4.8 6.4 0.00 0.00 3.28 86 1009.8
20260506123103 -17 116 6.4 8.0 0.00 0.00 3.28 87 1010.1
20260506122603 -17 169 3.2 3.2 0.00 0.00 3.28 87 1010.0
20260506122103 -17 161 6.4 6.4 0.00 0.00 3.28 85 1010.1
20260506121603 -17 185 6.4 8.0 0.00 0.00 3.28 86 1009.8
20260506121103 -17 174 11.3 14.5 0.00 0.00 3.28 84 1010.0